Location: Franzen
(48.6167°N, 15.3833°E)
Time: 19:22:12
(UTC+00:00)

Transit 2A - Pass Details

Date: 06 August 2021
Orbit: 594 x 964 km, 66.7° (Epoch: 27 September)

Event Time Altitude Azimuth Distance (km) Brightness Sun altitude
Rises 05:49:33 0° 256° (WSW) 2,886 8.4 19.8°
Reaches altitude 10° 05:52:07 10° 271° (W) 2,022 7.7 20.2°
Maximum altitude 05:55:48 24° 325° (NW) 1,391 7.2 20.8°
Drops below altitude 10° 05:59:46 10° 19° (NNE) 2,185 8.7 21.5°
Sets 06:02:40 0° 33° (NNE) 3,179 9.7 22.0°
